This demonstration page uses our WeatherBlox Daily Observations layout. Learn more.

Left ArrowRight Arrow

36.17497, -115.13722

Hourly Observations for January 17, 2019

Temp ( °F °C ) Dew Point ( °F °C ) Humidity (%) Winds ( mph kmh ) Pressure ( in mb ) Visibility ( mi km ) Precip ( " mm )
12:53 am 00:53 Cloudy with Light Rain 50 10 47 8.3 89 89 E 5 7 30.17 1022 10 16.0934 0.02 0.508
1:53 am 01:53 Cloudy 50 10 48 8.9 93 93 E 7 11 30.14 1021 10 16.0934 0 0.0254
2:53 am 02:53 Cloudy 51 10.6 48 8.9 89 89 E 8 13 30.13 1020 10 16.0934 0 0
3:53 am 03:53 Cloudy 51 10.6 48 8.9 89 89 E 6 9 30.11 1020 10 16.0934 0 0
4:53 am 04:53 Mostly Cloudy 51 10.6 47 8.3 86 86 NE 3 6 30.1 1019 10 16.0934 0 0
5:53 am 05:53 Cloudy 50 10 47 8.3 89 89 Calm 30.11 1020 10 16.0934 0 0
6:53 am 06:53 Mostly Cloudy 50 10 47 8.3 89 89 ENE 5 7 30.11 1020 10 16.0934 0 0
7:53 am 07:53 Cloudy with Light Rain 51 10.6 48 8.9 89 89 Calm 30.11 1020 10 16.0934 0 0.0254
8:53 am 08:53 Cloudy with Light Rain 52 11.1 48 8.9 86 86 E 3 6 30.11 1020 10 16.0934 0.01 0.254
9:53 am 09:53 Cloudy with Light Rain 54 12.2 49 9.4 83 83 SSE 10 17 30.14 1021 10 16.0934 0.04 1.016
10:53 am 10:53 Mostly Cloudy with Light Rain 56 13.3 50 10 81 81 S 15 24 30.13 1020 10 16.0934 0.01 0.254
11:53 am 11:53 Cloudy with Light Rain 57 13.9 50 10 78 78 SSE 14 22 30.08 1019 10 16.0934 0 0.0254
12:08 pm 12:08 Cloudy with Light Rain 57 13.9 50 10 78 78 S 13 20 30 1016 10 16.0934 0 0.0254
12:17 pm 12:17 Cloudy with Light Rain 57 13.9 50 10 78 78 SSW 9 15 30 1016 9 14.48406 0 0.0254
12:53 pm 12:53 Cloudy 59 15 51 10.6 75 75 SE 7 11 30.03 1017 10 16.0934 0 0.0254
1:53 pm 13:53 Mostly Cloudy 62 16.7 50 10 65 65 SSW 9 15 30.01 1016 10 16.0934 0 0
2:53 pm 14:53 Mostly Cloudy 63 17.2 45 7.2 52 52 SW 23 37 29.97 1015 10 16.0934 0 0
3:53 pm 15:53 Sunny 63 17.2 45 7.2 52 52 SW 21 33 29.98 1015 10 16.0934 0 0
4:53 pm 16:53 Clear 60 15.6 46 7.8 60 60 WSW 17 28 29.98 1015 10 16.0934 0 0
5:53 pm 17:53 Mostly Clear 59 15 47 8.3 64 64 SSW 9 15 30.02 1017 10 16.0934 0 0
6:53 pm 18:53 Clear 61 16.1 42 5.6 50 50 SW 13 20 30 1016 10 16.0934 0 0
7:53 pm 19:53 Clear 60 15.6 40 4.4 47 47 SW 15 24 29.99 1016 10 16.0934 0 0
8:53 pm 20:53 Clear 59 15 39 3.9 48 48 WSW 8 13 29.99 1016 10 16.0934 0 0
9:53 pm 21:53 Clear 53 11.7 44 6.7 72 72 NW 9 15 29.99 1016 10 16.0934 0 0
10:53 pm 22:53 Clear 52 11.1 44 6.7 75 75 NW 10 17 30.03 1017 10 16.0934 0 0
11:53 pm 23:53 Clear 52 11.1 44 6.7 75 75 WNW 6 9 30.06 1018 10 16.0934 0 0

Powered by AerisWeather